FENGYUN 1C DEB, 30241

Orbit data source: Space-Track

FENGYUN 1C DEB, 30241 is space debris in SSO originally from a launch on Mon, 10 May 1999 UTC launched from the Taiyaun Space Center, China (TSC). Fengyun 1C debris stems from the Chinese weather satellite Fengyun-1C, which was intentionally destroyed by a Chinese anti-satellite missile in 2007. This event dramatically increased the amount of space debris, with thousands of trackable fragments posing hazards to satellites and human spaceflight. The Fengyun 1C debris cloud has become a focal point in discussions about space sustainability and the need for international regulations to prevent the creation of new debris.

Loading next visibility...
Identifier
30241, 1999-025XA
Orbit
SSO
Country
Flag of CNCN / PRC
Related business
Manufacturer
Unknown
Mission
Spacecraft
Bus & Motor
Unknown
Mass
Unknown
Launch date (UTC)
1999-05-10 (27 years ago)
Launch vehicle
Unknown
Launch site
Taiyaun Space Center, China (TSC)
Object type
Payload
Rocket body
Debris
Shape & HBR
Unknown shape, 0.1 m
Radar Cross Section
Small (<0.1 m²)

Expand to show TLE details & history
Last TLE update: 8 hours ago

TLE from 8 hours ago
0 FENGYUN 1C DEB
1 30241U 99025XA  26120.38391205  .00000327  00000-0  19227-3 0  9993
2 30241  99.1675 260.6636 0146602  53.8128   8.3105 14.09722552988654
Epoch: 2026-04-30T09:12Z
TLE epoch observation values (Epoch: 2026-04-30T09:12:50.001Z)
Latitude
61.10022°
Longitude
-112.78084°
Altitude
765.715 km
Speed
7.531 km/s
True Right ascension
16h 15m 02s
True Declination
60° 57' 17"
Sunlit
Object was in daylight at epoch
Visualization orbit readout
Latitude
Unknown
Longitude
Unknown
Altitude
Unknown
Speed
Unknown
Apparent Right ascension
Unknown
Apparent Declination
Unknown
Sunlit
N/A
Visualization observer readout
Local Sidereal Time
00:46:21
Azimuth
Unknown
Elevation
Unknown
Doppler factor
Unknown
Orbital elements
Apogee altitude
963.591 km
Perigee altitude
751.439 km
Semi-major axis
7,235.652 km
Eccentricity
0.01466
Inclination
99.1675°
RAAN
260.6636°
Arg. of periapsis
53.8128°
True anomaly
8.55779°
Mean anomaly
8.3105°
Eccentric anomaly
8.43369°
Mean motion
3.52636 °/min
Orbital period
102.09 mins
BSTAR
0.00019227
Loading maneuver chart data...
Computing Atmospheric mass density...

Documentation

Showing up to 5 results
|